When you browse on this site, cookies collect data to enhance your experience and personalize the content and advertising you see.
Visit our Privacy Policy to learn more. By continuing to use the site, you agree to this use of cookies and data.
  • In Hungary
  • List of Countries
  • For 7 days
  • Water Temperature
  • Weather Map
  • News
  • Weather Widgets
  • user-avatar
    Login

    Hourly Weather Dolino

    Today, 25 January, Saturday

    Time Temperature Precipitation Wind Pressure Humidity
    00:00 -1°C° 0.2 mm 3 mps 733 mmHg 95%
    01:00 -2°C° 0.2 mm 4 mps 733 mmHg 94%
    02:00 -2°C° 0.2 mm 4 mps 733 mmHg 93%
    03:00 -2°C° 0 mm 4 mps 733 mmHg 90%
    04:00 -2°C° 0 mm 4 mps 732 mmHg 86%
    05:00 -2°C° 0 mm 4 mps 732 mmHg 83%
    06:00 -3°C° 0 mm 4 mps 732 mmHg 85%
    07:00 -3°C° 0 mm 4 mps 732 mmHg 88%
    08:00 -3°C° 0 mm 4 mps 731 mmHg 91%
    09:00 -4°C° 0.1 mm 5 mps 731 mmHg 89%
    10:00 -2°C° 0.1 mm 5 mps 730 mmHg 87%
    11:00 -2°C° 0.1 mm 6 mps 730 mmHg 86%
    12:00 -2°C° 0.2 mm 6 mps 730 mmHg 79%
    13:00 -2°C° 0.2 mm 6 mps 730 mmHg 73%
    14:00 -3°C° 0.2 mm 6 mps 730 mmHg 67%
    15:00 -3°C° 0 mm 6 mps 731 mmHg 72%
    16:00 -4°C° 0 mm 6 mps 732 mmHg 77%
    17:00 -5°C° 0 mm 6 mps 732 mmHg 82%
    18:00 -5°C° 0.1 mm 6 mps 733 mmHg 81%
    19:00 -5°C° 0.1 mm 6 mps 733 mmHg 81%
    20:00 -5°C° 0.1 mm 6 mps 733 mmHg 81%
    21:00 -5°C° 0 mm 6 mps 734 mmHg 80%
    22:00 -5°C° 0 mm 6 mps 735 mmHg 80%
    23:00 -6°C° 0 mm 6 mps 736 mmHg 80%

    Tomorrow, 26 January, Sunday

    Time Temperature Precipitation Wind Pressure Humidity
    00:00 -6°C° 0 mm 5 mps 737 mmHg 80%
    01:00 -6°C° 0 mm 5 mps 738 mmHg 80%
    02:00 -6°C° 0 mm 5 mps 739 mmHg 81%
    03:00 -6°C° 0 mm 5 mps 739 mmHg 81%
    04:00 -7°C° 0 mm 4 mps 740 mmHg 81%
    05:00 -7°C° 0 mm 4 mps 741 mmHg 81%
    06:00 -6°C° 0 mm 3 mps 741 mmHg 82%
    07:00 -6°C° 0 mm 3 mps 742 mmHg 84%
    08:00 -6°C° 0 mm 3 mps 742 mmHg 85%
    09:00 -5°C° 0 mm 3 mps 742 mmHg 82%
    10:00 -5°C° 0 mm 3 mps 742 mmHg 80%
    11:00 -4°C° 0 mm 4 mps 742 mmHg 78%
    12:00 -4°C° 0.1 mm 4 mps 742 mmHg 82%
    13:00 -4°C° 0.1 mm 4 mps 741 mmHg 87%
    14:00 -4°C° 0.1 mm 4 mps 741 mmHg 92%
    15:00 -4°C° 0.4 mm 5 mps 740 mmHg 92%
    16:00 -4°C° 0.4 mm 5 mps 739 mmHg 93%
    17:00 -3°C° 0.4 mm 6 mps 738 mmHg 93%
    18:00 -2°C° 0.2 mm 6 mps 738 mmHg 93%
    19:00 -1°C° 0.2 mm 6 mps 737 mmHg 92%
    20:00 +1°C° 0.2 mm 6 mps 737 mmHg 92%
    21:00 +1°C° 0.2 mm 6 mps 737 mmHg 92%
    22:00 +1°C° 0.2 mm 6 mps 737 mmHg 92%
    23:00 +1°C° 0.2 mm 6 mps 738 mmHg 92%

    Day after tomorrow, 27 January, Monday

    Time Temperature Precipitation Wind Pressure Humidity
    00:00 +1°C° 0.2 mm 5 mps 738 mmHg 93%
    01:00 +1°C° 0.2 mm 5 mps 738 mmHg 93%
    02:00 +1°C° 0.2 mm 4 mps 739 mmHg 93%
    03:00 0°C° 0.3 mm 4 mps 739 mmHg 95%
    04:00 0°C° 0.3 mm 4 mps 740 mmHg 96%
    05:00 +1°C° 0.3 mm 3 mps 741 mmHg 97%
    06:00 0°C° 0.2 mm 3 mps 741 mmHg 96%
    07:00 -1°C° 0.2 mm 2 mps 742 mmHg 96%
    08:00 -2°C° 0.2 mm 2 mps 742 mmHg 95%
    09:00 -2°C° 0 mm 2 mps 743 mmHg 93%
    10:00 -1°C° 0 mm 1 mps 743 mmHg 90%
    11:00 -1°C° 0 mm 1 mps 744 mmHg 88%
    12:00 -1°C° 0 mm 1 mps 744 mmHg 88%
    13:00 -1°C° 0 mm 1 mps 744 mmHg 87%
    14:00 -3°C° 0 mm 2 mps 744 mmHg 87%
    15:00 -3°C° 0.1 mm 2 mps 744 mmHg 89%
    16:00 -3°C° 0.1 mm 2 mps 744 mmHg 92%
    17:00 -4°C° 0.1 mm 2 mps 744 mmHg 94%
    18:00 -5°C° 0.3 mm 3 mps 744 mmHg 94%
    19:00 -5°C° 0.3 mm 3 mps 744 mmHg 94%
    20:00 -5°C° 0.3 mm 3 mps 744 mmHg 94%
    21:00 -5°C° 0.3 mm 3 mps 744 mmHg 94%
    22:00 -5°C° 0.3 mm 3 mps 744 mmHg 94%
    23:00 -5°C° 0.3 mm 3 mps 744 mmHg 94%

    28 January, Tuesday

    Time Temperature Precipitation Wind Pressure Humidity
    00:00 -5°C° 0.1 mm 3 mps 744 mmHg 94%
    01:00 -5°C° 0.1 mm 3 mps 743 mmHg 94%
    02:00 -3°C° 0.1 mm 2 mps 743 mmHg 95%
    03:00 -3°C° 0.2 mm 2 mps 743 mmHg 95%
    04:00 -3°C° 0.2 mm 2 mps 743 mmHg 95%
    05:00 -3°C° 0.2 mm 2 mps 743 mmHg 96%
    06:00 -2°C° 0.2 mm 2 mps 742 mmHg 96%
    07:00 -2°C° 0.2 mm 2 mps 742 mmHg 96%
    08:00 -2°C° 0.2 mm 2 mps 742 mmHg 97%
    09:00 -2°C° 0.2 mm 2 mps 742 mmHg 97%
    10:00 -1°C° 0.2 mm 2 mps 742 mmHg 97%
    11:00 -1°C° 0.2 mm 2 mps 742 mmHg 98%
    12:00 +1°C° 0.3 mm 1 mps 742 mmHg 98%
    13:00 +1°C° 0.3 mm 1 mps 742 mmHg 98%
    14:00 +2°C° 0.3 mm 1 mps 742 mmHg 98%
    15:00 +1°C° 0.1 mm 2 mps 742 mmHg 98%
    16:00 +1°C° 0.1 mm 2 mps 741 mmHg 98%
    17:00 +1°C° 0.1 mm 2 mps 741 mmHg 98%
    18:00 -1°C° 0.1 mm 2 mps 741 mmHg 98%
    19:00 -1°C° 0.1 mm 2 mps 741 mmHg 98%
    20:00 -1°C° 0.1 mm 2 mps 741 mmHg 97%
    21:00 -1°C° 0.1 mm 2 mps 741 mmHg 97%
    22:00 -1°C° 0.1 mm 2 mps 741 mmHg 97%
    23:00 -2°C° 0.1 mm 2 mps 741 mmHg 96%

    29 January, Wednesday

    Time Temperature Precipitation Wind Pressure Humidity
    00:00 -2°C° 0.1 mm 2 mps 741 mmHg 97%
    01:00 -2°C° 0.1 mm 2 mps 741 mmHg 97%
    02:00 -2°C° 0.1 mm 2 mps 740 mmHg 98%
    03:00 -1°C° 0.2 mm 2 mps 740 mmHg 98%
    04:00 -1°C° 0.2 mm 2 mps 740 mmHg 98%
    05:00 -1°C° 0.2 mm 2 mps 740 mmHg 98%
    06:00 -1°C° 0 mm 2 mps 740 mmHg 98%
    07:00 +1°C° 0 mm 2 mps 740 mmHg 98%
    08:00 +1°C° 0 mm 2 mps 740 mmHg 98%
    09:00 +1°C° 0 mm 2 mps 740 mmHg 97%
    10:00 +1°C° 0 mm 2 mps 740 mmHg 96%
    11:00 0°C° 0 mm 3 mps 740 mmHg 96%
    12:00 0°C° 0 mm 3 mps 740 mmHg 95%
    13:00 0°C° 0 mm 3 mps 740 mmHg 94%
    14:00 0°C° 0 mm 3 mps 740 mmHg 93%
    15:00 0°C° 0 mm 3 mps 740 mmHg 95%
    16:00 0°C° 0 mm 3 mps 740 mmHg 96%
    17:00 0°C° 0 mm 3 mps 740 mmHg 97%
    18:00 0°C° 0 mm 3 mps 740 mmHg 97%
    19:00 -1°C° 0 mm 3 mps 740 mmHg 97%
    20:00 -1°C° 0 mm 3 mps 739 mmHg 97%
    21:00 0°C° 0 mm 3 mps 739 mmHg 97%
    22:00 0°C° 0 mm 3 mps 739 mmHg 97%
    23:00 0°C° 0 mm 3 mps 739 mmHg 97%

    30 January, Thursday

    Time Temperature Precipitation Wind Pressure Humidity
    00:00 0°C° 0 mm 3 mps 739 mmHg 96%
    01:00 0°C° 0 mm 3 mps 739 mmHg 96%
    02:00 0°C° 0 mm 3 mps 739 mmHg 96%
    03:00 -1°C° 0 mm 3 mps 738 mmHg 96%
    04:00 -1°C° 0 mm 3 mps 738 mmHg 96%
    05:00 -2°C° 0 mm 4 mps 738 mmHg 96%
    06:00 -2°C° 0 mm 4 mps 738 mmHg 96%
    07:00 -2°C° 0 mm 4 mps 737 mmHg 96%
    08:00 -2°C° 0 mm 4 mps 737 mmHg 96%
    09:00 -2°C° 0.1 mm 4 mps 737 mmHg 95%
    10:00 -2°C° 0.1 mm 4 mps 737 mmHg 95%
    11:00 -2°C° 0.1 mm 4 mps 737 mmHg 94%
    12:00 -2°C° 0.1 mm 4 mps 736 mmHg 94%
    13:00 -2°C° 0.1 mm 4 mps 736 mmHg 93%
    14:00 -2°C° 0.1 mm 4 mps 736 mmHg 93%
    15:00 -2°C° 0 mm 4 mps 736 mmHg 92%
    16:00 -2°C° 0 mm 4 mps 736 mmHg 92%
    17:00 -3°C° 0 mm 4 mps 735 mmHg 92%
    18:00 -3°C° 0.1 mm 4 mps 735 mmHg 93%
    19:00 -3°C° 0.1 mm 4 mps 735 mmHg 94%
    20:00 -4°C° 0.1 mm 4 mps 735 mmHg 95%
    21:00 -4°C° 0.2 mm 3 mps 735 mmHg 94%
    22:00 -4°C° 0.2 mm 3 mps 735 mmHg 93%
    23:00 -4°C° 0.2 mm 3 mps 735 mmHg 93%
    Show more